Year,Month,Day,Hour,Minute,Value (Times are PST for temperature in C)
2011,10,19,08,57,7.50
2011,10,19,08,58,7.50
2011,10,19,08,59,7.60
2011,10,19,09,00,7.70
2011,10,19,09,01,7.80
2011,10,19,09,02,7.90
2011,10,19,09,03,8.00
2011,10,19,09,04,8.10
2011,10,19,09,05,8.30
2011,10,19,09,06,8.30
2011,10,19,09,07,8.40
2011,10,19,09,08,8.50
2011,10,19,09,09,8.50
2011,10,19,09,10,8.60
2011,10,19,09,11,8.70
2011,10,19,09,12,8.80
2011,10,19,09,13,8.90
2011,10,19,09,14,9.00
2011,10,19,09,15,9.10
2011,10,19,09,16,9.10
2011,10,19,09,17,9.20
2011,10,19,09,18,9.30
2011,10,19,09,19,9.30
2011,10,19,09,20,9.40
2011,10,19,09,21,9.40
2011,10,19,09,22,9.50
2011,10,19,09,23,9.60
2011,10,19,09,24,9.60
2011,10,19,09,25,9.60
2011,10,19,09,26,9.70
2011,10,19,09,27,9.70
2011,10,19,09,28,9.70
2011,10,19,09,29,9.70
2011,10,19,09,30,9.80
2011,10,19,09,31,9.80
2011,10,19,09,32,9.80
2011,10,19,09,33,9.80
2011,10,19,09,34,9.80
2011,10,19,09,35,9.80
2011,10,19,09,36,9.70
2011,10,19,09,37,9.70
2011,10,19,09,38,9.80
2011,10,19,09,39,9.80
2011,10,19,09,40,9.70
2011,10,19,09,41,9.70
2011,10,19,09,42,9.70
2011,10,19,09,43,9.70
2011,10,19,09,44,9.70
2011,10,19,09,45,9.80
2011,10,19,09,46,9.80
2011,10,19,09,47,9.80
2011,10,19,09,48,9.80
2011,10,19,09,49,9.80
2011,10,19,09,50,9.90
2011,10,19,09,51,9.90
2011,10,19,09,52,9.90
2011,10,19,09,53,9.90
2011,10,19,09,54,9.90
2011,10,19,09,55,9.90
2011,10,19,09,56,9.90
2011,10,19,09,57,9.90
2011,10,19,09,58,9.90
2011,10,19,09,59,9.90
2011,10,19,10,00,9.90
2011,10,19,10,01,9.90
2011,10,19,10,02,10.00
2011,10,19,10,03,10.00
2011,10,19,10,04,10.00
2011,10,19,10,05,10.10
2011,10,19,10,06,10.10
2011,10,19,10,07,10.10
2011,10,19,10,08,10.10
2011,10,19,10,09,10.20
2011,10,19,10,10,10.20
2011,10,19,10,11,10.20
2011,10,19,10,12,10.30
2011,10,19,10,13,10.30
2011,10,19,10,14,10.30
2011,10,19,10,15,10.30
2011,10,19,10,16,10.30
2011,10,19,10,17,10.30
2011,10,19,10,18,10.30
2011,10,19,10,19,10.30
2011,10,19,10,20,10.30
2011,10,19,10,21,10.30
2011,10,19,10,22,10.30
2011,10,19,10,23,10.30
2011,10,19,10,24,10.40
2011,10,19,10,25,10.40
2011,10,19,10,26,10.40
2011,10,19,10,27,10.50
2011,10,19,10,28,10.60
2011,10,19,10,29,10.60
2011,10,19,10,30,10.70
2011,10,19,10,31,10.70
2011,10,19,10,32,10.70
2011,10,19,10,33,10.70
2011,10,19,10,34,10.60
2011,10,19,10,35,10.60
2011,10,19,10,36,10.50
2011,10,19,10,37,10.50
2011,10,19,10,38,10.50
2011,10,19,10,39,10.50
2011,10,19,10,40,10.50
2011,10,19,10,41,10.40
2011,10,19,10,42,10.40
2011,10,19,10,43,10.40
2011,10,19,10,44,10.40
2011,10,19,10,45,10.40
2011,10,19,10,46,10.40
2011,10,19,10,47,10.40
2011,10,19,10,48,10.30
2011,10,19,10,49,10.30
2011,10,19,10,50,10.30
2011,10,19,10,51,10.20
2011,10,19,10,52,10.20
2011,10,19,10,53,10.20
2011,10,19,10,54,10.10
2011,10,19,10,55,10.10
2011,10,19,10,56,10.10
2011,10,19,10,57,10.10
2011,10,19,10,58,10.10
2011,10,19,10,59,10.10
2011,10,19,11,00,10.10
2011,10,19,11,01,10.10
2011,10,19,11,02,10.00
2011,10,19,11,03,10.00
2011,10,19,11,04,10.00
2011,10,19,11,05,10.00
2011,10,19,11,06,9.90
2011,10,19,11,07,9.90
2011,10,19,11,08,9.90
2011,10,19,11,09,10.00
2011,10,19,11,10,10.00
2011,10,19,11,11,10.10
2011,10,19,11,12,10.20
2011,10,19,11,13,10.10
2011,10,19,11,14,10.10
2011,10,19,11,15,10.10
2011,10,19,11,16,10.20
2011,10,19,11,17,10.20
2011,10,19,11,18,10.30
2011,10,19,11,19,10.20
2011,10,19,11,20,10.20
2011,10,19,11,21,10.20
2011,10,19,11,22,10.20
2011,10,19,11,23,10.20
2011,10,19,11,24,10.30
2011,10,19,11,25,10.30
2011,10,19,11,26,10.30
2011,10,19,11,27,10.20
2011,10,19,11,28,10.20
2011,10,19,11,29,10.20
2011,10,19,11,30,10.30
2011,10,19,11,31,10.30
2011,10,19,11,32,10.20
2011,10,19,11,33,10.20
2011,10,19,11,34,10.20
2011,10,19,11,35,10.10
2011,10,19,11,36,10.10
2011,10,19,11,37,10.10
2011,10,19,11,38,10.10
2011,10,19,11,39,10.10
2011,10,19,11,40,10.10
2011,10,19,11,41,10.10
2011,10,19,11,42,10.10
2011,10,19,11,43,10.10
2011,10,19,11,44,10.10
2011,10,19,11,45,10.10
2011,10,19,11,46,10.10
2011,10,19,11,47,10.20
2011,10,19,11,48,10.20
2011,10,19,11,49,10.20
2011,10,19,11,50,10.30
2011,10,19,11,51,10.30
2011,10,19,11,52,10.40
2011,10,19,11,53,10.40
2011,10,19,11,54,10.40
2011,10,19,11,55,10.40
2011,10,19,11,56,10.30
2011,10,19,11,57,10.30
2011,10,19,11,58,10.30
2011,10,19,11,59,10.30
2011,10,19,12,00,10.30
2011,10,19,12,01,10.30
2011,10,19,12,02,10.40
2011,10,19,12,03,10.40
2011,10,19,12,04,10.50
2011,10,19,12,05,10.50
2011,10,19,12,06,10.60
2011,10,19,12,07,10.70
2011,10,19,12,08,10.80
2011,10,19,12,09,10.80
2011,10,19,12,10,10.80
2011,10,19,12,11,10.80
2011,10,19,12,12,10.90
2011,10,19,12,13,10.90
2011,10,19,12,14,10.90
2011,10,19,12,15,10.90
2011,10,19,12,16,10.90
2011,10,19,12,17,10.80
2011,10,19,12,18,10.80
2011,10,19,12,19,10.80
2011,10,19,12,20,10.80
2011,10,19,12,21,10.80
2011,10,19,12,22,10.80
2011,10,19,12,23,10.80
2011,10,19,12,24,10.80
2011,10,19,12,25,10.80
2011,10,19,12,26,10.80
2011,10,19,12,27,10.80
2011,10,19,12,28,10.80
2011,10,19,12,29,10.80
2011,10,19,12,30,10.80
2011,10,19,12,31,10.80
2011,10,19,12,32,10.80
2011,10,19,12,33,10.80
2011,10,19,12,34,10.80
2011,10,19,12,35,10.80
2011,10,19,12,36,10.80
2011,10,19,12,37,10.80
2011,10,19,12,38,10.80
2011,10,19,12,39,10.80
2011,10,19,12,40,10.70
2011,10,19,12,41,10.70
2011,10,19,12,42,10.70
2011,10,19,12,43,10.70
2011,10,19,12,44,10.70
2011,10,19,12,45,10.60
2011,10,19,12,46,10.60
2011,10,19,12,47,10.60
2011,10,19,12,48,10.60
2011,10,19,12,49,10.60
2011,10,19,12,50,10.60
2011,10,19,12,51,10.60
2011,10,19,12,52,10.70
2011,10,19,12,53,10.70
2011,10,19,12,54,10.70
2011,10,19,12,55,10.70
2011,10,19,12,56,10.70
2011,10,19,12,57,10.70
2011,10,19,12,58,10.70
2011,10,19,12,59,10.70
2011,10,19,13,00,10.80
2011,10,19,13,01,10.80
2011,10,19,13,02,10.80
2011,10,19,13,03,10.80
2011,10,19,13,04,10.80
2011,10,19,13,05,10.80
2011,10,19,13,06,10.80
2011,10,19,13,07,10.80
2011,10,19,13,08,10.80
2011,10,19,13,09,10.80
2011,10,19,13,10,10.80
2011,10,19,13,11,10.80
2011,10,19,13,12,10.70
2011,10,19,13,13,10.70
2011,10,19,13,14,10.80
2011,10,19,13,15,10.80
2011,10,19,13,16,10.80
2011,10,19,13,17,10.80
2011,10,19,13,18,10.80
2011,10,19,13,19,10.90
2011,10,19,13,20,10.90
2011,10,19,13,21,10.90
2011,10,19,13,22,10.90
2011,10,19,13,23,10.90
2011,10,19,13,24,10.90
2011,10,19,13,25,10.90
2011,10,19,13,26,10.90
2011,10,19,13,27,10.80
2011,10,19,13,28,10.80
2011,10,19,13,29,10.80
2011,10,19,13,30,10.80
2011,10,19,13,31,10.80
2011,10,19,13,32,10.80
2011,10,19,13,33,10.80
2011,10,19,13,34,10.80
2011,10,19,13,35,10.80
2011,10,19,13,36,10.80
2011,10,19,13,37,10.70
2011,10,19,13,38,10.80
2011,10,19,13,39,10.80
2011,10,19,13,40,10.80
2011,10,19,13,41,10.80
2011,10,19,13,42,10.80
2011,10,19,13,43,10.80
2011,10,19,13,44,10.80
2011,10,19,13,45,10.90
2011,10,19,13,46,10.90
2011,10,19,13,47,10.90
2011,10,19,13,48,10.90
2011,10,19,13,49,10.90
2011,10,19,13,50,10.90
2011,10,19,13,51,10.90
2011,10,19,13,52,10.90
2011,10,19,13,53,11.00
2011,10,19,13,54,11.00
2011,10,19,13,55,11.00
2011,10,19,13,56,11.10
2011,10,19,13,57,11.00
2011,10,19,13,58,11.10
2011,10,19,13,59,11.10
2011,10,19,14,00,11.10
2011,10,19,14,01,11.00
2011,10,19,14,02,11.00
2011,10,19,14,03,11.00
2011,10,19,14,04,11.00
2011,10,19,14,05,11.10
2011,10,19,14,06,11.10
2011,10,19,14,07,11.00
2011,10,19,14,08,11.00
2011,10,19,14,09,10.90
2011,10,19,14,10,10.90
2011,10,19,14,11,10.90
2011,10,19,14,12,10.90
2011,10,19,14,13,10.90
2011,10,19,14,14,10.90
2011,10,19,14,15,10.80
2011,10,19,14,16,10.80
2011,10,19,14,17,10.80
2011,10,19,14,18,10.80
2011,10,19,14,19,10.80
2011,10,19,14,20,10.80
2011,10,19,14,21,10.80
2011,10,19,14,22,10.80
2011,10,19,14,23,10.90
2011,10,19,14,24,10.90
2011,10,19,14,25,10.90
2011,10,19,14,26,10.90
2011,10,19,14,27,10.90
2011,10,19,14,28,11.00
2011,10,19,14,29,11.00
2011,10,19,14,30,11.00
2011,10,19,14,31,11.00
2011,10,19,14,32,11.00
2011,10,19,14,33,11.10
2011,10,19,14,34,11.10
2011,10,19,14,35,11.10
2011,10,19,14,36,11.10
2011,10,19,14,37,11.10
2011,10,19,14,38,11.10
2011,10,19,14,39,11.00
2011,10,19,14,40,11.00
2011,10,19,14,41,11.00
2011,10,19,14,42,10.90
2011,10,19,14,43,10.90
2011,10,19,14,44,10.80
2011,10,19,14,45,10.80
2011,10,19,14,46,10.90
2011,10,19,14,47,10.90
2011,10,19,14,48,10.90
2011,10,19,14,49,10.90
2011,10,19,14,50,10.90
2011,10,19,14,51,10.80
2011,10,19,14,52,10.80
2011,10,19,14,53,10.80
2011,10,19,14,54,10.80
2011,10,19,14,55,10.80
2011,10,19,14,56,10.90
2011,10,19,14,57,10.90
2011,10,19,14,58,10.90
2011,10,19,14,59,10.90
2011,10,19,15,00,10.80
2011,10,19,15,01,10.80
2011,10,19,15,02,10.80
2011,10,19,15,03,10.80
2011,10,19,15,04,10.80
2011,10,19,15,05,10.70
2011,10,19,15,06,10.70
2011,10,19,15,07,10.70
2011,10,19,15,08,10.70
2011,10,19,15,09,10.70
2011,10,19,15,10,10.80
2011,10,19,15,11,10.80
2011,10,19,15,12,10.90
2011,10,19,15,13,10.90
2011,10,19,15,14,11.00
2011,10,19,15,15,11.00
2011,10,19,15,16,11.00
2011,10,19,15,17,11.00
2011,10,19,15,18,11.00
2011,10,19,15,19,11.00
2011,10,19,15,20,11.00
2011,10,19,15,21,11.00
2011,10,19,15,22,11.10
2011,10,19,15,23,11.10
2011,10,19,15,24,11.10
2011,10,19,15,25,11.10
2011,10,19,15,26,11.10
2011,10,19,15,27,11.20
2011,10,19,15,28,11.20
2011,10,19,15,29,11.20
2011,10,19,15,30,11.20
2011,10,19,15,31,11.20
2011,10,19,15,32,11.20
2011,10,19,15,33,11.20
2011,10,19,15,34,11.20
2011,10,19,15,35,11.20
2011,10,19,15,36,11.20
2011,10,19,15,37,11.10
2011,10,19,15,38,11.10
2011,10,19,15,39,11.10
2011,10,19,15,40,11.10
2011,10,19,15,41,11.10
2011,10,19,15,42,11.10
2011,10,19,15,43,11.10
2011,10,19,15,44,11.10
2011,10,19,15,45,11.10
2011,10,19,15,46,11.10
2011,10,19,15,47,11.10
2011,10,19,15,48,11.10
2011,10,19,15,49,11.10
2011,10,19,15,50,11.10
2011,10,19,15,51,11.10
2011,10,19,15,52,11.10
2011,10,19,15,53,11.10
2011,10,19,15,54,11.10
2011,10,19,15,55,11.10
2011,10,19,15,56,11.10
2011,10,19,15,57,11.10
2011,10,19,15,58,11.10
2011,10,19,15,59,11.10
2011,10,19,16,00,11.10
2011,10,19,16,01,11.10
2011,10,19,16,02,11.10
2011,10,19,16,03,11.10
2011,10,19,16,04,11.10
2011,10,19,16,05,11.10
2011,10,19,16,06,11.10
2011,10,19,16,07,11.10
2011,10,19,16,08,11.10
2011,10,19,16,09,11.10
2011,10,19,16,10,11.10
2011,10,19,16,11,11.10
2011,10,19,16,12,11.10
2011,10,19,16,13,11.10
2011,10,19,16,14,11.10
2011,10,19,16,15,11.10
2011,10,19,16,16,11.10
2011,10,19,16,17,11.10
2011,10,19,16,18,11.10
2011,10,19,16,19,11.10
2011,10,19,16,20,11.10
2011,10,19,16,21,11.10
2011,10,19,16,22,11.10
2011,10,19,16,23,11.20
2011,10,19,16,24,11.20
2011,10,19,16,25,11.20
2011,10,19,16,26,11.20
2011,10,19,16,27,11.20
2011,10,19,16,28,11.20
2011,10,19,16,29,11.20
2011,10,19,16,30,11.20
2011,10,19,16,31,11.20
2011,10,19,16,32,11.20
2011,10,19,16,33,11.20
2011,10,19,16,34,11.20
2011,10,19,16,35,11.20
2011,10,19,16,36,11.20
2011,10,19,16,37,11.20
2011,10,19,16,38,11.20
2011,10,19,16,39,11.20
2011,10,19,16,40,11.20
2011,10,19,16,41,11.20
2011,10,19,16,42,11.20
2011,10,19,16,43,11.20
2011,10,19,16,44,11.20
2011,10,19,16,45,11.20
2011,10,19,16,46,11.20
2011,10,19,16,47,11.20
2011,10,19,16,48,11.20
2011,10,19,16,49,11.20
2011,10,19,16,50,11.20
2011,10,19,16,51,11.20
2011,10,19,16,52,11.10
2011,10,19,16,53,11.10
2011,10,19,16,54,11.00
2011,10,19,16,55,11.00
2011,10,19,16,56,11.00
2011,10,19,16,57,10.90
2011,10,19,16,58,10.90
2011,10,19,16,59,10.90
2011,10,19,17,00,10.90
2011,10,19,17,01,10.80
2011,10,19,17,02,10.80
2011,10,19,17,03,10.80
2011,10,19,17,04,10.80
2011,10,19,17,05,10.70
2011,10,19,17,06,10.70
2011,10,19,17,07,10.70
2011,10,19,17,08,10.70
2011,10,19,17,09,10.60
2011,10,19,17,10,10.60
2011,10,19,17,11,10.60
2011,10,19,17,12,10.60
2011,10,19,17,13,10.60
2011,10,19,17,14,10.60
2011,10,19,17,15,10.60
2011,10,19,17,16,10.60
2011,10,19,17,17,10.60
2011,10,19,17,18,10.60
2011,10,19,17,19,10.60
2011,10,19,17,20,10.60
2011,10,19,17,21,10.60
2011,10,19,17,22,10.60
